Location: Unnamed
(47.6264°N, 122.3366°W)
Time: 23:13:57
(UTC-07:00)

ELYUSIUM/LOWER FREE FLYE - Pass Details

Date: 09 August 2020
Orbit: 571 x 589 km, 97.7° (Epoch: 21 September)

Event Time Altitude Azimuth Distance (km) Brightness Sun altitude
Exits shadow 00:26:05 10° 263° (W) 1,890 ? -25.8°
Maximum altitude 00:26:48 10° 273° (W) 1,867 ? -25.8°
Drops below altitude 10° 00:27:23 10° 281° (WNW) 1,886 ? -25.8°
Sets 00:31:41 0° 325° (NW) 2,798 ? -26.0°
